2002,4,1,0,5,-2.49,01,0.00,06,0.32,01,-2.63,01,18.56,01,79.60,01
2002,4,1,0,10,-2.54,01,0.00,06,0.18,01,-2.48,01,18.49,01,80.50,01
2002,4,1,0,15,-2.20,01,0.00,06,0.13,01,-2.13,01,18.40,01,81.70,01
2002,4,1,0,20,-1.61,01,0.00,06,0.24,01,-1.53,01,18.41,01,80.70,01
2002,4,1,0,25,-1.62,01,0.00,06,0.11,01,-1.43,01,18.42,01,83.60,01
2002,4,1,0,30,-1.15,01,0.00,06,0.26,01,-1.26,01,18.38,01,82.40,01
2002,4,1,0,35,-1.64,01,0.00,06,0.18,01,-1.53,01,18.36,01,82.30,01
2002,4,1,0,40,-1.30,01,0.00,06,0.41,01,-1.09,01,18.38,01,81.80,01
2002,4,1,0,45,-1.25,01,0.00,06,0.58,01,-0.68,01,18.47,01,82.10,01
2002,4,1,0,50,-1.03,01,0.00,06,0.51,01,-0.77,01,18.54,01,84.70,01
2002,4,1,0,55,-1.44,01,0.00,06,0.19,01,-1.37,01,18.45,01,85.70,01
2002,4,1,1,0,-1.09,01,0.00,06,0.23,01,-1.22,01,18.43,01,85.70,01
2002,4,1,1,5,-1.41,01,0.00,06,-0.18,01,-0.93,01,18.31,01,88.40,01
2002,4,1,1,10,-2.52,01,0.00,06,0.09,01,-1.29,01,18.30,01,84.40,01
2002,4,1,1,15,-2.26,01,0.00,06,0.29,01,-1.66,01,18.36,01,84.90,01
2002,4,1,1,20,-1.61,01,0.00,06,0.14,01,-1.46,01,18.31,01,85.80,01
2002,4,1,1,25,-1.34,01,0.00,06,0.27,01,-1.34,01,18.35,01,84.30,01
2002,4,1,1,30,-1.02,01,0.00,06,0.51,01,-1.04,01,18.42,01,80.30,01
2002,4,1,1,35,-1.07,01,0.00,06,0.43,01,-0.77,01,18.54,01,81.60,01
2002,4,1,1,40,-3.16,01,0.00,06,0.04,01,-1.48,01,18.44,01,83.60,01
2002,4,1,1,45,-1.69,01,0.00,06,0.21,01,-1.08,01,18.48,01,84.70,01
2002,4,1,1,50,-1.15,01,0.00,06,0.06,01,-0.70,01,18.39,01,86.10,01
2002,4,1,1,55,-5.08,01,0.00,06,-2.18,01,-2.96,01,18.44,01,81.20,01
2002,4,1,2,0,-7.38,01,0.00,06,0.31,01,-5.67,01,18.15,01,87.20,01
2002,4,1,2,5,-5.75,01,0.00,06,3.52,01,-4.48,01,18.12,01,91.40,01
2002,4,1,2,10,-3.46,01,0.00,06,3.89,01,-3.15,01,18.24,01,92.80,01
2002,4,1,2,15,-4.38,01,0.00,06,3.40,01,-4.27,01,18.16,01,94.80,01
2002,4,1,2,20,-3.58,01,0.00,06,4.21,01,-3.96,01,17.94,01,96.60,01
2002,4,1,2,25,-3.40,01,0.00,06,4.74,01,-4.02,01,17.91,01,98.00,01
2002,4,1,2,30,-2.99,01,0.00,06,3.92,01,-3.55,01,17.87,01,98.90,01
2002,4,1,2,35,-2.24,01,0.00,06,3.29,01,-3.35,01,17.83,01,98.80,01
2002,4,1,2,40,-2.13,01,0.00,06,3.05,01,-3.32,01,17.90,01,98.00,01
2002,4,1,2,45,-2.10,01,0.00,06,2.42,01,-3.41,01,18.01,01,93.50,01
2002,4,1,2,50,-3.27,01,0.00,06,1.57,01,-3.92,01,18.14,01,87.50,01
2002,4,1,2,55,-3.12,01,0.00,06,1.51,01,-3.55,01,18.18,01,90.80,01
2002,4,1,3,0,-2.53,01,0.00,06,1.45,01,-3.28,01,18.05,01,93.70,01
2002,4,1,3,5,-1.60,01,0.00,06,1.37,01,-2.93,01,17.90,01,97.30,01
2002,4,1,3,10,-0.74,01,0.00,06,1.42,01,-2.49,01,17.74,01,95.10,01
2002,4,1,3,15,-0.11,01,0.00,06,1.74,01,-2.23,01,17.77,01,92.90,01
2002,4,1,3,20,-0.05,01,0.00,06,1.47,01,-1.69,01,17.90,01,94.00,01
2002,4,1,3,25,-0.15,01,0.00,06,1.10,01,-1.19,01,17.97,01,94.60,01
2002,4,1,3,30,-0.09,01,0.00,06,1.17,01,-0.81,01,17.99,01,94.80,01
2002,4,1,3,35,-0.14,01,0.00,06,1.15,01,-0.69,01,18.04,01,96.80,01
2002,4,1,3,40,-0.18,01,0.00,06,0.94,01,-0.68,01,18.02,01,97.10,01
2002,4,1,3,45,-0.12,01,0.00,06,0.98,01,-0.65,01,18.06,01,99.50,01
2002,4,1,3,50,-0.48,01,0.00,06,0.57,01,-0.78,01,18.01,01,101.00,08
2002,4,1,3,55,-2.65,01,0.00,06,-0.08,01,-2.23,01,17.89,01,101.00,08
2002,4,1,4,0,-3.78,01,0.00,06,-0.72,01,-3.48,01,17.82,01,101.20,08
2002,4,1,4,5,-3.72,01,0.00,06,-0.14,01,-3.55,01,17.85,01,102.80,08
2002,4,1,4,10,-3.79,01,0.00,06,0.43,01,-3.63,01,17.76,01,101.70,08
2002,4,1,4,15,-4.03,01,0.00,06,0.27,01,-3.77,01,17.72,01,101.70,08
2002,4,1,4,20,-4.74,01,0.00,06,-0.09,01,-4.66,01,17.57,01,100.50,08
2002,4,1,4,25,-5.00,01,0.00,06,-0.29,01,-4.88,01,17.49,01,99.90,01
2002,4,1,4,30,-4.32,01,0.00,06,0.08,01,-4.20,01,17.46,01,100.00,01
2002,4,1,4,35,-3.81,01,0.00,06,1.22,01,-3.77,01,17.48,01,100.60,08
2002,4,1,4,40,-3.36,01,0.00,06,1.79,01,-3.31,01,17.49,01,101.80,08
2002,4,1,4,45,-2.44,01,0.00,06,1.32,01,-2.95,01,17.55,01,102.30,08
2002,4,1,4,50,-1.87,01,0.00,06,1.34,01,-2.67,01,17.59,01,102.90,08
2002,4,1,4,55,-1.22,01,0.00,06,1.95,01,-2.02,01,17.68,01,103.80,08
2002,4,1,5,0,-0.90,01,0.00,06,2.35,01,-2.12,01,17.80,01,99.20,01
2002,4,1,5,5,-1.39,01,0.00,06,1.67,01,-2.13,01,17.91,01,95.10,01
2002,4,1,5,10,-1.50,01,0.00,06,0.82,01,-2.15,01,17.98,01,92.60,01
2002,4,1,5,15,-1.93,01,0.00,06,0.37,01,-3.04,01,17.92,01,92.70,01
2002,4,1,5,20,-1.27,01,0.00,06,0.08,01,-2.34,01,17.84,01,92.10,01
2002,4,1,5,25,-1.00,01,0.00,06,-0.15,01,-1.50,01,17.77,01,91.30,01
2002,4,1,5,30,-0.73,01,0.00,06,-0.13,01,-0.98,01,17.77,01,90.00,01
2002,4,1,5,35,-0.64,01,0.00,06,-0.30,01,-0.76,01,17.66,01,91.10,01
2002,4,1,5,40,0.01,01,-0.08,06,-0.25,01,-0.08,01,17.55,01,91.10,01
2002,4,1,5,45,1.17,01,0.98,06,-0.48,01,1.00,01,17.45,01,91.70,01
2002,4,1,5,50,3.37,01,3.30,06,-0.15,01,3.31,01,17.44,01,90.60,01
2002,4,1,5,55,7.16,01,7.12,06,0.00,01,7.12,01,17.54,01,90.30,01
2002,4,1,6,0,10.50,01,10.73,06,0.05,01,10.73,01,17.63,01,90.90,01
2002,4,1,6,5,9.68,01,9.88,06,0.00,01,9.88,01,17.56,01,90.10,01
2002,4,1,6,10,12.67,01,12.82,06,0.26,01,12.79,01,17.59,01,88.20,01
2002,4,1,6,15,14.59,01,14.87,06,0.48,01,14.80,01,17.71,01,87.40,01
2002,4,1,6,20,13.55,01,13.87,06,-0.08,01,13.88,01,17.70,01,91.00,01
2002,4,1,6,25,16.61,03,16.69,06,0.05,03,16.68,03,17.73,01,85.00,01
2002,4,1,6,30,23.48,03,23.53,06,0.43,03,23.44,03,17.78,01,84.20,01
2002,4,1,6,35,29.03,03,28.46,06,0.29,03,28.39,03,17.82,01,82.40,01
2002,4,1,6,40,44.93,03,44.57,06,0.61,03,44.42,03,17.91,01,80.30,01
2002,4,1,6,45,78.33,03,78.02,06,1.20,03,77.70,03,18.05,01,79.50,01
2002,4,1,6,50,120.97,03,118.89,06,1.74,03,118.40,03,18.07,01,82.40,01
2002,4,1,6,55,137.43,03,135.23,06,3.09,03,134.30,03,18.16,01,82.30,01
2002,4,1,7,0,98.04,03,98.02,06,1.95,03,97.40,03,18.14,01,84.30,01
2002,4,1,7,5,73.00,03,72.63,06,0.69,03,72.40,03,18.08,01,83.40,01
2002,4,1,7,10,75.70,03,75.61,06,0.87,03,75.30,03,18.12,01,81.30,01
2002,4,1,7,15,86.50,03,85.90,06,0.26,03,85.80,03,18.18,01,82.70,01
2002,4,1,7,20,92.30,03,91.70,06,0.01,03,91.70,03,18.16,01,82.00,01
2002,4,1,7,25,120.98,03,120.28,06,-0.05,03,120.30,03,18.11,01,85.40,01
2002,4,1,7,30,161.31,03,166.22,06,11.95,03,161.10,03,18.19,01,82.30,01
2002,4,1,7,35,215.09,10,229.44,06,36.64,11,213.10,11,18.44,01,76.60,01
2002,4,1,7,40,297.06,14,327.53,06,72.80,15,293.80,15,18.67,01,74.20,01
2002,4,1,7,45,208.90,03,209.92,06,6.07,03,207.00,03,18.87,01,72.30,01
2002,4,1,7,50,192.78,03,193.31,06,3.03,03,191.80,03,18.97,01,72.60,01
2002,4,1,7,55,198.80,03,200.23,06,4.92,03,197.70,03,19.15,01,69.81,01
2002,4,1,8,0,203.62,03,205.79,06,6.77,03,202.20,03,19.33,01,67.83,01
2002,4,1,8,5,208.96,03,210.58,06,5.99,03,207.30,03,19.51,01,66.55,01
2002,4,1,8,10,217.16,03,217.07,06,3.33,03,215.20,03,19.75,01,62.65,01
2002,4,1,8,15,299.14,14,327.07,06,56.26,15,294.50,15,19.93,01,60.95,01
2002,4,1,8,20,295.03,03,306.62,06,27.12,03,290.50,03,20.18,01,60.97,01
2002,4,1,8,25,315.33,03,317.72,06,13.98,03,309.20,03,20.33,01,59.09,01
2002,4,1,8,30,344.35,03,348.52,06,21.00,03,335.40,03,20.44,01,56.72,01
2002,4,1,8,35,474.57,22,528.18,06,115.40,23,454.40,23,20.63,01,55.67,01
2002,4,1,8,40,394.13,03,394.97,06,17.39,03,383.60,03,20.85,01,54.20,01
2002,4,1,8,45,379.26,03,378.84,06,4.70,03,375.70,03,20.91,01,53.79,01
2002,4,1,8,50,399.69,03,400.08,06,9.65,03,393.50,03,21.06,01,53.88,01
2002,4,1,8,55,345.17,03,345.32,06,4.35,03,342.30,03,21.20,01,53.54,01
2002,4,1,9,0,289.66,03,290.62,06,3.14,03,288.40,03,21.07,01,53.86,01
2002,4,1,9,5,325.60,03,325.83,06,2.40,03,324.10,03,21.21,01,53.03,01
2002,4,1,9,10,402.53,03,404.51,06,14.05,03,394.20,03,21.25,01,53.73,01
2002,4,1,9,15,399.67,03,400.11,06,12.88,03,390.50,03,21.44,01,52.34,01
2002,4,1,9,20,344.73,03,352.32,06,16.78,03,339.60,03,21.75,01,51.91,01
2002,4,1,9,25,399.54,03,416.86,06,35.95,03,389.20,03,21.99,01,50.65,01
2002,4,1,9,30,415.09,03,421.71,06,27.94,03,399.90,03,21.85,01,51.62,01
2002,4,1,9,35,715.33,42,826.61,06,260.30,43,620.60,43,21.86,01,51.06,01
2002,4,1,9,40,809.59,90,1052.17,06,459.50,91,683.70,91,21.99,01,52.28,01
2002,4,1,9,45,837.26,90,1135.93,06,534.40,91,702.00,91,22.11,01,51.23,01
2002,4,1,9,50,822.23,86,1078.59,06,492.00,87,674.30,87,22.18,01,50.54,01
2002,4,1,9,55,545.15,18,604.52,06,176.90,19,457.50,19,22.56,01,49.70,01
2002,4,1,10,0,849.71,42,979.44,06,492.50,43,565.70,43,22.59,01,48.47,01
2002,4,1,10,5,914.79,78,1147.33,06,580.00,79,655.10,79,23.11,01,47.79,01
2002,4,1,10,10,838.92,42,971.11,06,375.80,43,649.10,43,23.24,01,47.90,01
2002,4,1,10,15,578.91,03,578.82,06,35.07,03,548.50,03,23.29,01,47.99,01
2002,4,1,10,20,589.82,03,600.99,06,72.00,03,538.20,03,23.30,01,47.70,01
2002,4,1,10,25,664.74,03,686.59,06,149.80,03,554.90,03,23.29,01,46.26,01
2002,4,1,10,30,419.27,03,421.70,06,8.24,03,414.40,03,23.36,01,46.95,01
2002,4,1,10,35,444.61,03,447.29,06,51.90,03,401.00,03,23.67,01,45.69,01
2002,4,1,10,40,339.13,03,340.09,06,2.22,03,338.10,03,23.57,01,46.24,01
2002,4,1,10,45,407.95,03,405.36,06,13.69,03,393.00,03,23.37,01,47.25,01
2002,4,1,10,50,441.94,03,437.92,06,22.15,03,417.80,03,23.61,01,47.10,01
2002,4,1,10,55,243.60,03,243.60,06,1.75,03,242.00,03,23.59,01,48.06,01
2002,4,1,11,0,198.20,09,197.33,06,0.25,09,197.10,09,23.64,01,48.21,01
2002,4,1,11,5,233.30,03,233.11,06,1.64,03,231.60,03,23.85,01,47.62,01
2002,4,1,11,10,292.74,03,294.31,06,4.12,03,290.50,03,24.01,01,46.61,01
2002,4,1,11,15,376.47,03,377.61,06,10.48,03,367.90,03,24.05,01,45.99,01
2002,4,1,11,20,477.68,03,479.55,06,18.24,03,462.60,03,24.20,01,45.45,01
2002,4,1,11,25,441.63,03,437.15,06,33.13,03,406.30,03,24.50,01,44.98,01
2002,4,1,11,30,587.86,11,557.57,06,88.20,10,475.30,10,24.51,01,44.68,01
2002,4,1,11,35,459.66,03,440.36,06,47.60,03,395.90,03,24.55,01,44.48,01
2002,4,1,11,40,914.90,71,683.67,06,326.80,70,378.20,70,24.71,01,44.43,01
2002,4,1,11,45,975.68,91,665.46,06,407.00,90,284.90,90,24.92,01,43.52,01
2002,4,1,11,50,967.84,91,644.24,06,400.50,90,269.80,90,25.12,01,43.05,01
2002,4,1,11,55,966.88,91,632.41,06,385.50,90,272.20,90,25.28,01,43.07,01
2002,4,1,12,0,964.96,91,615.58,06,374.30,90,266.20,90,25.78,01,41.79,01
2002,4,1,12,5,954.24,91,601.02,06,361.60,90,264.00,90,25.96,01,41.62,01
2002,4,1,12,10,953.33,91,594.35,06,356.00,90,263.20,90,26.24,01,41.31,01
2002,4,1,12,15,956.37,91,585.45,06,342.10,90,268.00,90,26.52,01,41.32,01
2002,4,1,12,20,954.52,91,570.73,06,322.10,90,272.70,90,26.24,01,41.68,01
2002,4,1,12,25,954.74,91,562.84,06,312.90,90,274.30,90,26.27,01,42.13,01
2002,4,1,12,30,953.13,91,583.80,06,287.60,90,319.60,90,26.37,01,41.98,01
2002,4,1,12,35,972.16,87,684.03,06,231.80,86,472.00,86,26.41,01,42.63,01
2002,4,1,12,40,699.75,27,601.78,06,90.50,26,519.40,26,26.69,01,41.87,01
2002,4,1,12,45,983.84,91,628.42,06,245.40,90,406.20,90,26.92,01,41.80,01
2002,4,1,12,50,982.35,91,649.50,06,225.80,90,446.20,90,27.27,01,42.11,01
2002,4,1,12,55,950.39,83,684.74,06,178.20,82,525.30,82,27.30,01,42.07,01
2002,4,1,13,0,1166.47,08,753.53,06,253.20,02,528.50,02,26.97,01,42.58,01
2002,4,1,13,5,1034.16,91,715.57,06,196.50,90,542.20,90,27.47,01,42.08,01
2002,4,1,13,10,854.42,51,687.09,06,103.70,50,596.30,50,27.57,01,41.11,01
2002,4,1,13,15,856.90,47,712.26,06,96.70,46,628.30,46,27.80,01,41.10,01
2002,4,1,13,20,587.50,03,568.07,06,23.21,03,548.10,03,28.10,01,40.61,01
2002,4,1,13,25,558.35,11,531.64,06,19.40,10,515.10,10,27.42,01,41.73,01
2002,4,1,13,30,601.59,19,545.41,06,30.46,18,519.70,18,27.42,01,42.23,01
2002,4,1,13,35,573.43,27,500.79,06,33.63,26,472.70,26,27.41,01,42.51,01
2002,4,1,13,40,458.71,03,445.65,06,9.74,03,437.60,03,27.39,01,43.00,01
2002,4,1,13,45,426.73,03,423.65,06,2.51,03,421.60,03,27.42,01,43.24,01
2002,4,1,13,50,422.15,03,404.78,06,14.85,03,392.80,03,27.67,01,42.98,01
2002,4,1,13,55,346.81,03,346.31,06,2.15,03,344.60,03,27.81,01,42.86,01
2002,4,1,14,0,408.62,03,394.98,06,13.47,03,384.40,03,27.94,01,42.83,01
2002,4,1,14,5,396.55,03,388.87,06,11.06,03,380.30,03,28.00,01,43.22,01
2002,4,1,14,10,442.42,03,419.63,06,14.19,03,408.80,03,28.18,01,42.72,01
2002,4,1,14,15,377.04,03,375.54,06,3.65,03,372.80,03,27.90,01,43.23,01
2002,4,1,14,20,482.28,19,433.41,06,28.14,18,412.60,18,27.98,01,43.60,01
2002,4,1,14,25,597.43,55,455.71,06,52.67,54,417.40,54,28.05,01,43.46,01
2002,4,1,14,30,664.72,91,427.88,06,83.80,90,368.00,90,28.33,01,43.44,01
2002,4,1,14,35,720.10,91,427.71,06,99.80,90,357.70,90,28.56,01,42.64,01
2002,4,1,14,40,674.00,91,418.64,06,91.90,90,355.40,90,28.64,01,42.80,01
2002,4,1,14,45,553.02,59,410.21,06,56.94,58,371.80,58,28.72,01,42.83,01
2002,4,1,14,50,521.42,55,392.74,06,53.50,54,357.40,54,29.09,01,41.82,01
2002,4,1,14,55,392.42,23,336.24,06,22.19,22,321.90,22,28.82,01,41.32,01
2002,4,1,15,0,416.24,27,357.65,06,28.25,26,339.80,26,28.86,01,41.24,01
2002,4,1,15,5,308.14,03,298.11,06,6.17,03,294.30,03,28.88,01,41.23,01
2002,4,1,15,10,355.13,27,297.01,06,21.13,26,284.30,26,28.82,01,41.92,01
2002,4,1,15,15,427.87,55,320.86,06,43.60,54,295.30,54,29.43,01,40.78,01
2002,4,1,15,20,407.09,47,308.18,06,39.56,46,285.60,46,29.48,01,27.16,01
2002,4,1,15,25,342.59,23,293.95,06,24.97,22,280.10,22,29.25,01,0.07,01
2002,4,1,15,30,330.83,27,277.54,06,26.81,26,263.10,26,29.33,01,0.07,01
2002,4,1,15,35,332.17,31,278.51,06,27.21,30,264.30,30,29.23,01,0.07,01
2002,4,1,15,40,325.50,23,282.36,06,27.02,22,268.70,22,29.06,01,0.07,01
2002,4,1,15,45,391.41,47,308.09,06,38.65,46,289.20,46,29.24,01,0.07,01
2002,4,1,15,50,287.33,03,278.88,06,10.77,03,273.80,03,29.45,01,0.07,01
2002,4,1,15,55,312.48,23,274.63,06,17.88,22,266.50,22,29.48,01,0.07,01
2002,4,1,16,0,228.88,03,224.35,06,6.07,03,221.70,03,29.49,01,0.07,01
2002,4,1,16,5,238.31,03,228.01,06,8.14,03,224.60,03,29.35,01,0.07,01
2002,4,1,16,10,264.14,19,235.12,06,18.47,18,227.70,18,29.27,01,0.07,01
2002,4,1,16,15,358.47,87,241.99,06,53.16,86,221.60,86,29.47,01,0.07,01
2002,4,1,16,20,242.68,35,194.94,06,27.75,34,184.80,34,29.74,01,0.07,01
2002,4,1,16,25,149.13,03,145.32,06,6.10,03,143.20,03,29.60,01,0.07,01
2002,4,1,16,30,128.39,03,128.33,06,0.39,03,128.20,03,29.59,01,0.07,01
2002,4,1,16,35,112.88,03,112.23,06,-0.87,03,112.50,03,29.26,01,0.07,01
2002,4,1,16,40,96.22,03,96.31,06,-1.01,03,96.60,03,29.04,01,0.07,01
2002,4,1,16,45,97.49,03,96.92,06,-1.38,03,97.30,03,29.02,01,0.07,01
2002,4,1,16,50,102.92,03,100.14,06,0.55,03,100.00,03,28.91,01,0.07,01
2002,4,1,16,55,122.16,15,109.01,06,10.70,14,106.50,14,29.01,01,0.07,01
2002,4,1,17,0,137.83,27,118.65,06,16.02,26,115.20,26,29.29,01,0.07,01
2002,4,1,17,5,108.18,03,99.05,06,7.41,03,97.60,03,29.20,01,0.07,01
2002,4,1,17,10,92.07,15,82.34,06,6.42,14,81.20,14,29.11,01,0.07,01
2002,4,1,17,15,85.60,01,75.44,06,7.20,01,74.30,01,29.09,01,0.07,01
2002,4,1,17,20,69.45,01,66.43,06,2.13,01,66.14,01,29.08,01,0.07,01
2002,4,1,17,25,65.28,01,58.57,06,5.45,01,57.92,01,29.01,01,0.07,01
2002,4,1,17,30,55.80,01,49.04,06,5.64,01,48.48,01,29.02,01,0.07,01
2002,4,1,17,35,40.76,01,37.36,06,3.81,01,37.05,01,28.96,01,0.07,01
2002,4,1,17,40,27.52,01,26.15,06,1.37,01,26.07,01,28.91,01,0.07,01
2002,4,1,17,45,15.83,01,15.35,06,-0.71,01,15.38,01,28.83,01,0.07,01
2002,4,1,17,50,5.48,01,5.95,06,-1.82,01,6.00,01,28.72,01,0.07,01
2002,4,1,17,55,-2.46,01,-2.14,06,-2.23,01,-2.12,01,28.62,01,0.07,01
2002,4,1,18,0,-5.11,01,0.00,06,-2.49,01,-4.69,01,28.50,01,0.07,01
2002,4,1,18,5,-6.45,01,0.00,06,-2.91,01,-6.10,01,28.26,01,0.07,01
2002,4,1,18,10,-6.77,01,0.00,06,-2.76,01,-6.57,01,27.97,01,0.07,01
2002,4,1,18,15,-6.81,01,0.00,06,-2.64,01,-6.65,01,27.79,01,0.07,01
2002,4,1,18,20,-6.69,01,0.00,06,-2.31,01,-6.18,01,27.64,01,0.07,01
2002,4,1,18,25,-6.77,01,0.00,06,-2.30,01,-6.43,01,27.39,01,0.07,01
2002,4,1,18,30,-7.07,01,0.00,06,-2.18,01,-6.87,01,27.15,01,0.07,01
2002,4,1,18,35,-6.54,01,0.00,06,-1.80,01,-6.16,01,27.02,01,0.07,01
2002,4,1,18,40,-6.06,01,0.00,06,-1.51,01,-5.79,01,26.98,01,0.07,01
2002,4,1,18,45,-6.43,01,0.00,06,-1.72,01,-5.93,01,26.77,01,0.07,01
2002,4,1,18,50,-5.99,01,0.00,06,-1.24,01,-5.63,01,26.67,01,0.07,01
2002,4,1,18,55,-5.53,01,0.00,06,-0.83,01,-5.18,01,26.71,01,0.07,01
2002,4,1,19,0,-5.55,01,0.00,06,-0.86,01,-5.19,01,26.54,01,0.07,01
2002,4,1,19,5,-4.58,01,0.00,06,-0.13,01,-4.68,01,26.56,01,0.07,01
2002,4,1,19,10,-4.58,01,0.00,06,-0.19,01,-4.65,01,26.56,01,0.07,01
2002,4,1,19,15,-4.69,01,0.00,06,-0.25,01,-4.79,01,26.44,01,0.07,01
2002,4,1,19,20,-3.89,01,0.00,06,-0.13,01,-4.16,01,26.36,01,0.07,01
2002,4,1,19,25,-3.15,01,0.00,06,0.06,01,-3.66,01,26.32,01,0.07,01
2002,4,1,19,30,-3.37,01,0.00,06,-0.58,01,-3.75,01,26.14,01,0.07,01
2002,4,1,19,35,-3.86,01,0.00,06,-0.93,01,-4.02,01,25.87,01,0.07,01
2002,4,1,19,40,-4.17,01,0.00,06,-0.97,01,-4.18,01,25.67,01,0.07,01
2002,4,1,19,45,-4.16,01,0.00,06,-0.96,01,-4.10,01,25.49,01,0.07,01
2002,4,1,19,50,-4.23,01,0.00,06,-0.91,01,-4.12,01,25.32,01,0.07,01
2002,4,1,19,55,-3.96,01,0.00,06,-0.84,01,-4.06,01,25.21,01,0.07,01
2002,4,1,20,0,-4.22,01,0.00,06,-0.99,01,-4.11,01,25.01,01,0.07,01
2002,4,1,20,5,-4.10,01,0.00,06,-0.91,01,-4.05,01,24.86,01,0.07,01
2002,4,1,20,10,-4.38,01,0.00,06,-0.84,01,-4.25,01,24.71,01,0.07,01
2002,4,1,20,15,-4.60,01,0.00,06,-0.83,01,-4.48,01,24.56,01,0.07,01
2002,4,1,20,20,-4.65,01,0.00,06,-0.92,01,-4.59,01,24.41,01,0.07,01
2002,4,1,20,25,-4.66,01,0.00,06,-0.89,01,-4.70,01,24.24,01,0.07,01
2002,4,1,20,30,-4.50,01,0.00,06,-0.67,01,-4.42,01,24.12,01,0.07,01
2002,4,1,20,35,-4.10,01,0.00,06,-0.60,01,-4.09,01,24.02,01,0.07,01
2002,4,1,20,40,-4.28,01,0.00,06,-0.68,01,-4.20,01,23.90,01,0.07,01
2002,4,1,20,45,-4.33,01,0.00,06,-0.58,01,-4.18,01,23.77,01,0.07,01
2002,4,1,20,50,-3.81,01,0.00,06,-0.42,01,-3.98,01,23.69,01,0.07,01
2002,4,1,20,55,-3.52,01,0.00,06,-0.16,01,-3.87,01,23.66,01,0.07,01
2002,4,1,21,0,-3.48,01,0.00,06,-0.09,01,-3.73,01,23.67,01,0.07,01
2002,4,1,21,5,-3.70,01,0.00,06,-0.22,01,-3.93,01,23.61,01,0.07,01
2002,4,1,21,10,-4.01,01,0.00,06,-0.29,01,-4.15,01,23.58,01,0.07,01
2002,4,1,21,15,-4.50,01,0.00,06,-0.39,01,-4.51,01,23.47,01,0.07,01
2002,4,1,21,20,-4.59,01,0.00,06,-0.37,01,-4.52,01,23.39,01,0.07,01
2002,4,1,21,25,-4.49,01,0.00,06,-0.29,01,-4.55,01,23.31,01,0.07,01
2002,4,1,21,30,-3.71,01,0.00,06,-0.04,01,-3.98,01,23.35,01,0.07,01
2002,4,1,21,35,-4.06,01,0.00,06,-0.02,01,-4.17,01,23.34,01,0.07,01
2002,4,1,21,40,-3.18,01,0.00,06,0.41,01,-3.37,01,23.40,01,0.07,01
2002,4,1,21,45,-2.79,01,0.00,06,0.44,01,-2.94,01,23.47,01,0.07,01
2002,4,1,21,50,-3.02,01,0.00,06,0.32,01,-3.02,01,23.44,01,0.07,01
2002,4,1,21,55,-3.18,01,0.00,06,0.06,01,-3.27,01,23.37,01,0.07,01
2002,4,1,22,0,-3.45,01,0.00,06,-0.05,01,-3.64,01,23.28,01,0.07,01
2002,4,1,22,5,-3.37,01,0.00,06,0.01,01,-3.59,01,23.21,01,0.07,01
2002,4,1,22,10,-3.44,01,0.00,06,-0.04,01,-3.62,01,23.18,01,0.07,01
2002,4,1,22,15,-3.96,01,0.00,06,-0.07,01,-4.12,01,23.16,01,0.07,01
2002,4,1,22,20,-4.44,01,0.00,06,-0.20,01,-4.45,01,23.06,01,0.07,01
2002,4,1,22,25,-4.53,01,0.00,06,-0.28,01,-4.58,01,22.91,01,0.07,01
2002,4,1,22,30,-4.24,01,0.00,06,-0.19,01,-4.39,01,22.84,01,0.07,01
2002,4,1,22,35,-3.72,01,0.00,06,0.08,01,-3.98,01,22.83,01,0.07,01
2002,4,1,22,40,-3.13,01,0.00,06,0.39,01,-3.35,01,22.93,01,0.07,01
2002,4,1,22,45,-3.28,01,0.00,06,0.28,01,-3.41,01,22.96,01,0.07,01
2002,4,1,22,50,-3.48,01,0.00,06,0.08,01,-3.65,01,22.88,01,0.07,01
2002,4,1,22,55,-3.46,01,0.00,06,0.01,01,-3.67,01,22.79,01,0.07,01
2002,4,1,23,0,-3.83,01,0.00,06,-0.11,01,-3.92,01,22.70,01,0.07,01
2002,4,1,23,5,-4.48,01,0.00,06,-0.31,01,-4.49,01,22.56,01,0.07,01
2002,4,1,23,10,-4.54,01,0.00,06,-0.28,01,-4.45,01,22.47,01,0.07,01
2002,4,1,23,15,-4.26,01,0.00,06,-0.18,01,-4.31,01,22.39,01,0.07,01
2002,4,1,23,20,-4.66,01,0.00,06,-0.20,01,-4.66,01,22.31,01,0.07,01
2002,4,1,23,25,-4.74,01,0.00,06,-0.24,01,-4.87,01,22.25,01,0.07,01
2002,4,1,23,30,-4.86,01,0.00,06,-0.27,01,-5.05,01,22.14,01,0.07,01
2002,4,1,23,35,-4.83,01,0.00,06,-0.20,01,-5.03,01,22.07,01,0.07,01
2002,4,1,23,40,-4.90,01,0.00,06,-0.25,01,-4.88,01,22.02,01,0.07,01
2002,4,1,23,45,-4.85,01,0.00,06,-0.09,01,-4.85,01,21.97,01,0.07,01
2002,4,1,23,50,-4.73,01,0.00,06,-0.09,01,-4.89,01,21.94,01,0.07,01
2002,4,1,23,55,-5.30,01,0.00,06,-0.20,01,-5.13,01,21.87,01,0.07,01
2002,4,2,0,0,-4.74,01,0.00,06,-0.07,01,-4.97,01,21.72,01,0.07,01
2002,4,2,0,5,-4.67,01,0.00,06,-0.07,01,-4.54,01,21.70,01,0.07,01
2002,4,2,0,10,-4.62,01,0.00,06,-0.05,01,-4.46,01,21.66,01,0.07,01
2002,4,2,0,15,-4.71,01,0.00,06,-0.10,01,-4.47,01,21.63,01,0.07,01
2002,4,2,0,20,-4.68,01,0.00,06,0.06,01,-4.53,01,21.56,01,0.07,01
2002,4,2,0,25,-4.02,01,0.00,06,0.46,01,-3.94,01,21.55,01,0.07,01
2002,4,2,0,30,-4.09,01,0.00,06,0.40,01,-4.07,01,21.51,01,0.07,01
2002,4,2,0,35,-3.99,01,0.00,06,0.37,01,-4.02,01,21.52,01,0.07,01
2002,4,2,0,40,-3.41,01,0.00,06,0.38,01,-3.52,01,21.66,01,0.07,01
2002,4,2,0,45,-3.29,01,0.00,06,0.46,01,-3.14,01,21.85,01,0.07,01
2002,4,2,0,50,-3.25,01,0.00,06,0.64,01,-3.15,01,21.90,01,0.07,01
2002,4,2,0,55,-3.35,01,0.00,06,0.54,01,-3.33,01,21.84,01,0.07,01
2002,4,2,1,0,-2.92,01,0.00,06,0.58,01,-2.95,01,21.92,01,0.07,01
2002,4,2,1,5,-3.13,01,0.00,06,0.56,01,-3.00,01,21.90,01,0.07,01
2002,4,2,1,10,-3.14,01,0.00,06,0.44,01,-2.99,01,21.88,01,0.07,01
2002,4,2,1,15,-3.31,01,0.00,06,0.38,01,-3.12,01,21.90,01,0.07,01
2002,4,2,1,20,-3.44,01,0.00,06,0.37,01,-3.44,01,21.89,01,0.07,01
2002,4,2,1,25,-3.92,01,0.00,06,-0.08,01,-3.74,01,21.80,01,0.07,01
2002,4,2,1,30,-5.40,01,0.00,06,-0.77,01,-4.91,01,21.37,01,0.07,01
2002,4,2,1,35,-5.56,01,0.00,06,-0.91,01,-5.03,01,20.95,01,0.07,01
2002,4,2,1,40,-5.52,01,0.00,06,-1.11,01,-4.95,01,20.70,01,0.07,01
2002,4,2,1,45,-5.24,01,0.00,06,-1.03,01,-4.60,01,20.56,01,0.07,01
2002,4,2,1,50,-5.13,01,0.00,06,-1.02,01,-4.47,01,20.41,01,0.07,01
2002,4,2,1,55,-4.73,01,0.00,06,-0.94,01,-4.33,01,20.23,01,0.07,01
2002,4,2,2,0,-4.07,01,0.00,06,-0.65,01,-3.66,01,20.19,01,0.07,01
2002,4,2,2,5,-3.40,01,0.00,06,-0.18,01,-3.07,01,20.26,01,0.07,01
2002,4,2,2,10,-2.44,01,0.00,06,0.49,01,-2.40,01,20.54,01,0.07,01
2002,4,2,2,15,-1.88,01,0.00,06,0.74,01,-2.02,01,20.91,01,0.07,01
2002,4,2,2,20,-1.88,01,0.00,06,0.79,01,-2.21,01,21.13,01,0.07,01
2002,4,2,2,25,-2.29,01,0.00,06,0.54,01,-2.43,01,21.18,01,0.07,01
2002,4,2,2,30,-3.11,01,0.00,06,0.23,01,-2.92,01,21.04,01,0.07,01
2002,4,2,2,35,-3.48,01,0.00,06,-0.17,01,-3.21,01,20.77,01,0.07,01
2002,4,2,2,40,-3.90,01,0.00,06,-0.39,01,-3.48,01,20.56,01,0.07,01
2002,4,2,2,45,-3.96,01,0.00,06,-0.51,01,-3.57,01,20.42,01,0.07,01
2002,4,2,2,50,-3.71,01,0.00,06,-0.52,01,-3.45,01,20.29,01,0.07,01
2002,4,2,2,55,-3.80,01,0.00,06,-0.48,01,-3.47,01,20.23,01,0.07,01
2002,4,2,3,0,-3.70,01,0.00,06,-0.37,01,-3.45,01,20.24,01,0.07,01
2002,4,2,3,5,-3.75,01,0.00,06,-0.33,01,-3.58,01,20.22,01,0.07,01
2002,4,2,3,10,-3.48,01,0.00,06,-0.17,01,-3.19,01,20.21,01,0.07,01
2002,4,2,3,15,-2.54,01,0.00,06,0.48,01,-2.46,01,20.38,01,0.07,01
2002,4,2,3,20,-2.12,01,0.00,06,0.41,01,-2.01,01,20.47,01,0.07,01
2002,4,2,3,25,-2.22,01,0.00,06,0.51,01,-2.19,01,20.51,01,0.07,01
2002,4,2,3,30,-2.62,01,0.00,06,-0.08,01,-2.52,01,20.40,01,0.07,01
2002,4,2,3,35,-2.98,01,0.00,06,-0.41,01,-2.87,01,20.03,01,0.07,01
2002,4,2,3,40,-3.09,01,0.00,06,-0.47,01,-2.92,01,19.91,01,0.07,01
2002,4,2,3,45,-3.21,01,0.00,06,-0.43,01,-3.01,01,19.92,01,0.07,01
2002,4,2,3,50,-3.46,01,0.00,06,-0.20,01,-3.27,01,20.01,01,0.07,01
2002,4,2,3,55,-3.36,01,0.00,06,-0.24,01,-3.08,01,20.08,01,0.07,01
2002,4,2,4,0,-3.24,01,0.00,06,-0.29,01,-2.98,01,20.00,01,0.07,01
2002,4,2,4,5,-2.53,01,0.00,06,-0.11,01,-2.52,01,19.97,01,0.07,01
2002,4,2,4,10,-1.82,01,0.00,06,0.13,01,-1.70,01,20.09,01,0.07,01
2002,4,2,4,15,-1.81,01,0.00,06,-0.03,01,-1.60,01,20.06,01,0.07,01
2002,4,2,4,20,-1.73,01,0.00,06,0.10,01,-1.58,01,20.05,01,0.07,01
2002,4,2,4,25,-1.58,01,0.00,06,0.10,01,-1.45,01,20.23,01,0.07,01
2002,4,2,4,30,-2.18,01,0.00,06,-0.12,01,-2.00,01,20.21,01,0.07,01
2002,4,2,4,35,-2.93,01,0.00,06,-0.23,01,-2.78,01,20.14,01,0.07,01
2002,4,2,4,40,-2.71,01,0.00,06,-0.25,01,-2.46,01,20.06,01,0.07,01
2002,4,2,4,45,-2.33,01,0.00,06,0.10,01,-2.29,01,20.04,01,0.07,01
2002,4,2,4,50,-1.98,01,0.00,06,0.34,01,-1.99,01,20.39,01,0.07,01
2002,4,2,4,55,-2.35,01,0.00,06,-0.01,01,-2.11,01,20.25,01,0.07,01
2002,4,2,5,0,-1.98,01,0.00,06,0.37,01,-1.77,01,20.38,01,0.07,01
2002,4,2,5,5,-3.05,01,0.00,06,-0.31,01,-2.78,01,20.27,01,0.07,01
2002,4,2,5,10,-4.57,01,0.00,06,-0.60,01,-4.43,01,20.00,01,0.07,01
2002,4,2,5,15,-4.30,01,0.00,06,-0.83,01,-3.99,01,19.83,01,0.07,01
2002,4,2,5,20,-4.16,01,0.00,06,-1.00,01,-3.66,01,19.61,01,0.07,01
2002,4,2,5,25,-3.27,01,0.00,06,-0.79,01,-3.16,01,19.47,01,0.07,01